Location: Helsinki
(60.1699°N, 24.9384°E)
Time: 15:46:13
(UTC+02:00)

S-56A Canister/Altair - Pass Details

Date: 29 October 2020
Orbit: 633 x 2500 km, 38.9° (Epoch: 29 November)

Event Time Altitude Azimuth Distance (km) Brightness Sun altitude
Rises 10:41:10 0° 250° (WSW) 4,255 11.3 14.3°
Reaches altitude 10° 10:45:52 10° 226° (SW) 3,681 11.4 14.5°
Maximum altitude 10:49:52 13° 201° (SSW) 3,733 12.0 14.7°
Drops below altitude 10° 10:54:26 10° 177° (S) 4,325 13.3 14.9°
Sets 11:01:08 0° 155° (SSE) 5,723 13.8 15.1°
